Index of /20260424/WXO-DD/model_gdps/15km/12/126
Name Last modified Size Description
Parent Directory -
20260424T12Z_MSC_GDPS_AbsoluteVorticity_IsbL-0200_LatLon0.15_PT126H.grib2 2026-04-24 16:27 1.5M
20260424T12Z_MSC_GDPS_AbsoluteVorticity_IsbL-0250_LatLon0.15_PT126H.grib2 2026-04-24 16:27 1.3M
20260424T12Z_MSC_GDPS_AbsoluteVorticity_IsbL-0500_LatLon0.15_PT126H.grib2 2026-04-24 16:27 1.4M
20260424T12Z_MSC_GDPS_AbsoluteVorticity_IsbL-0700_LatLon0.15_PT126H.grib2 2026-04-24 16:27 1.6M
20260424T12Z_MSC_GDPS_AbsoluteVorticity_IsbL-0850_LatLon0.15_PT126H.grib2 2026-04-24 16:27 1.6M
20260424T12Z_MSC_GDPS_AirTemp-Max_AGL-2m_LatLon0.15_PT126H.grib2 2026-04-24 16:27 748K
20260424T12Z_MSC_GDPS_AirTemp-Min_AGL-2m_LatLon0.15_PT126H.grib2 2026-04-24 16:27 797K
20260424T12Z_MSC_GDPS_AirTemp_AGL-120m_LatLon0.15_PT126H.grib2 2026-04-24 16:27 919K
20260424T12Z_MSC_GDPS_AirTemp_AGL-2m_LatLon0.15_PT126H.grib2 2026-04-24 16:27 1.0M
20260424T12Z_MSC_GDPS_AirTemp_AGL-40m_LatLon0.15_PT126H.grib2 2026-04-24 16:27 821K
20260424T12Z_MSC_GDPS_AirTemp_AGL-80m_LatLon0.15_PT126H.grib2 2026-04-24 16:27 809K
20260424T12Z_MSC_GDPS_AirTemp_IsbL-0001_LatLon0.15_PT126H.grib2 2026-04-24 16:27 705K
20260424T12Z_MSC_GDPS_AirTemp_IsbL-0005_LatLon0.15_PT126H.grib2 2026-04-24 16:27 681K
20260424T12Z_MSC_GDPS_AirTemp_IsbL-0010_LatLon0.15_PT126H.grib2 2026-04-24 16:27 755K
20260424T12Z_MSC_GDPS_AirTemp_IsbL-0020_LatLon0.15_PT126H.grib2 2026-04-24 16:27 778K
20260424T12Z_MSC_GDPS_AirTemp_IsbL-0030_LatLon0.15_PT126H.grib2 2026-04-24 16:27 744K
20260424T12Z_MSC_GDPS_AirTemp_IsbL-0050_LatLon0.15_PT126H.grib2 2026-04-24 16:27 800K
20260424T12Z_MSC_GDPS_AirTemp_IsbL-0100_LatLon0.15_PT126H.grib2 2026-04-24 16:27 960K
20260424T12Z_MSC_GDPS_AirTemp_IsbL-0150_LatLon0.15_PT126H.grib2 2026-04-24 16:27 1.0M
20260424T12Z_MSC_GDPS_AirTemp_IsbL-0175_LatLon0.15_PT126H.grib2 2026-04-24 16:27 962K
20260424T12Z_MSC_GDPS_AirTemp_IsbL-0200_LatLon0.15_PT126H.grib2 2026-04-24 16:27 1.0M
20260424T12Z_MSC_GDPS_AirTemp_IsbL-0225_LatLon0.15_PT126H.grib2 2026-04-24 16:27 1.0M
20260424T12Z_MSC_GDPS_AirTemp_IsbL-0250_LatLon0.15_PT126H.grib2 2026-04-24 16:27 1.0M
20260424T12Z_MSC_GDPS_AirTemp_IsbL-0275_LatLon0.15_PT126H.grib2 2026-04-24 16:27 1.0M
20260424T12Z_MSC_GDPS_AirTemp_IsbL-0300_LatLon0.15_PT126H.grib2 2026-04-24 16:27 1.0M
20260424T12Z_MSC_GDPS_AirTemp_IsbL-0350_LatLon0.15_PT126H.grib2 2026-04-24 16:27 929K
20260424T12Z_MSC_GDPS_AirTemp_IsbL-0400_LatLon0.15_PT126H.grib2 2026-04-24 16:27 942K
20260424T12Z_MSC_GDPS_AirTemp_IsbL-0450_LatLon0.15_PT126H.grib2 2026-04-24 16:27 963K
20260424T12Z_MSC_GDPS_AirTemp_IsbL-0500_LatLon0.15_PT126H.grib2 2026-04-24 16:27 1.0M
20260424T12Z_MSC_GDPS_AirTemp_IsbL-0550_LatLon0.15_PT126H.grib2 2026-04-24 16:27 802K
20260424T12Z_MSC_GDPS_AirTemp_IsbL-0600_LatLon0.15_PT126H.grib2 2026-04-24 16:27 899K
20260424T12Z_MSC_GDPS_AirTemp_IsbL-0650_LatLon0.15_PT126H.grib2 2026-04-24 16:27 928K
20260424T12Z_MSC_GDPS_AirTemp_IsbL-0700_LatLon0.15_PT126H.grib2 2026-04-24 16:27 959K
20260424T12Z_MSC_GDPS_AirTemp_IsbL-0750_LatLon0.15_PT126H.grib2 2026-04-24 16:27 1.0M
20260424T12Z_MSC_GDPS_AirTemp_IsbL-0800_LatLon0.15_PT126H.grib2 2026-04-24 16:27 1.1M
20260424T12Z_MSC_GDPS_AirTemp_IsbL-0850_LatLon0.15_PT126H.grib2 2026-04-24 16:27 1.1M
20260424T12Z_MSC_GDPS_AirTemp_IsbL-0875_LatLon0.15_PT126H.grib2 2026-04-24 16:27 1.2M
20260424T12Z_MSC_GDPS_AirTemp_IsbL-0900_LatLon0.15_PT126H.grib2 2026-04-24 16:27 1.2M
20260424T12Z_MSC_GDPS_AirTemp_IsbL-0925_LatLon0.15_PT126H.grib2 2026-04-24 16:27 1.1M
20260424T12Z_MSC_GDPS_AirTemp_IsbL-0950_LatLon0.15_PT126H.grib2 2026-04-24 16:27 1.2M
20260424T12Z_MSC_GDPS_AirTemp_IsbL-0970_LatLon0.15_PT126H.grib2 2026-04-24 16:27 1.2M
20260424T12Z_MSC_GDPS_AirTemp_IsbL-0985_LatLon0.15_PT126H.grib2 2026-04-24 16:27 1.2M
20260424T12Z_MSC_GDPS_AirTemp_IsbL-1000_LatLon0.15_PT126H.grib2 2026-04-24 16:27 1.1M
20260424T12Z_MSC_GDPS_AirTemp_IsbL-1015_LatLon0.15_PT126H.grib2 2026-04-24 16:27 1.1M
20260424T12Z_MSC_GDPS_Albedo_Sfc_LatLon0.15_PT126H.grib2 2026-04-24 16:27 247K
20260424T12Z_MSC_GDPS_CAPE_Sfc_LatLon0.15_PT126H.grib2 2026-04-24 16:27 4.0M
20260424T12Z_MSC_GDPS_CIN_Sfc_LatLon0.15_PT126H.grib2 2026-04-24 16:27 2.9M
20260424T12Z_MSC_GDPS_CloudWater_EAtm_LatLon0.15_PT126H.grib2 2026-04-24 16:27 536K
20260424T12Z_MSC_GDPS_ConvectivePrecip-Accum_Sfc_LatLon0.15_PT126H.grib2 2026-04-24 16:27 3.6M
20260424T12Z_MSC_GDPS_DewPointDepression_AGL-2m_LatLon0.15_PT126H.grib2 2026-04-24 16:27 764K
20260424T12Z_MSC_GDPS_DewPointDepression_IsbL-0010_LatLon0.15_PT126H.grib2 2026-04-24 16:27 65K
20260424T12Z_MSC_GDPS_DewPointDepression_IsbL-0020_LatLon0.15_PT126H.grib2 2026-04-24 16:27 81K
20260424T12Z_MSC_GDPS_DewPointDepression_IsbL-0030_LatLon0.15_PT126H.grib2 2026-04-24 16:27 66K
20260424T12Z_MSC_GDPS_DewPointDepression_IsbL-0050_LatLon0.15_PT126H.grib2 2026-04-24 16:27 357K
20260424T12Z_MSC_GDPS_DewPointDepression_IsbL-0100_LatLon0.15_PT126H.grib2 2026-04-24 16:27 403K
20260424T12Z_MSC_GDPS_DewPointDepression_IsbL-0150_LatLon0.15_PT126H.grib2 2026-04-24 16:27 457K
20260424T12Z_MSC_GDPS_DewPointDepression_IsbL-0175_LatLon0.15_PT126H.grib2 2026-04-24 16:27 557K
20260424T12Z_MSC_GDPS_DewPointDepression_IsbL-0200_LatLon0.15_PT126H.grib2 2026-04-24 16:27 670K
20260424T12Z_MSC_GDPS_DewPointDepression_IsbL-0225_LatLon0.15_PT126H.grib2 2026-04-24 16:27 782K
20260424T12Z_MSC_GDPS_DewPointDepression_IsbL-0250_LatLon0.15_PT126H.grib2 2026-04-24 16:27 870K
20260424T12Z_MSC_GDPS_DewPointDepression_IsbL-0275_LatLon0.15_PT126H.grib2 2026-04-24 16:27 881K
20260424T12Z_MSC_GDPS_DewPointDepression_IsbL-0300_LatLon0.15_PT126H.grib2 2026-04-24 16:27 915K
20260424T12Z_MSC_GDPS_DewPointDepression_IsbL-0350_LatLon0.15_PT126H.grib2 2026-04-24 16:27 943K
20260424T12Z_MSC_GDPS_DewPointDepression_IsbL-0400_LatLon0.15_PT126H.grib2 2026-04-24 16:27 1.0M
20260424T12Z_MSC_GDPS_DewPointDepression_IsbL-0450_LatLon0.15_PT126H.grib2 2026-04-24 16:27 1.0M
20260424T12Z_MSC_GDPS_DewPointDepression_IsbL-0500_LatLon0.15_PT126H.grib2 2026-04-24 16:27 1.0M
20260424T12Z_MSC_GDPS_DewPointDepression_IsbL-0550_LatLon0.15_PT126H.grib2 2026-04-24 16:27 1.0M
20260424T12Z_MSC_GDPS_DewPointDepression_IsbL-0600_LatLon0.15_PT126H.grib2 2026-04-24 16:27 1.0M
20260424T12Z_MSC_GDPS_DewPointDepression_IsbL-0650_LatLon0.15_PT126H.grib2 2026-04-24 16:27 1.1M
20260424T12Z_MSC_GDPS_DewPointDepression_IsbL-0700_LatLon0.15_PT126H.grib2 2026-04-24 16:27 1.1M
20260424T12Z_MSC_GDPS_DewPointDepression_IsbL-0750_LatLon0.15_PT126H.grib2 2026-04-24 16:27 1.1M
20260424T12Z_MSC_GDPS_DewPointDepression_IsbL-0800_LatLon0.15_PT126H.grib2 2026-04-24 16:27 1.2M
20260424T12Z_MSC_GDPS_DewPointDepression_IsbL-0850_LatLon0.15_PT126H.grib2 2026-04-24 16:27 1.2M
20260424T12Z_MSC_GDPS_DewPointDepression_IsbL-0875_LatLon0.15_PT126H.grib2 2026-04-24 16:27 1.1M
20260424T12Z_MSC_GDPS_DewPointDepression_IsbL-0900_LatLon0.15_PT126H.grib2 2026-04-24 16:27 1.1M
20260424T12Z_MSC_GDPS_DewPointDepression_IsbL-0925_LatLon0.15_PT126H.grib2 2026-04-24 16:27 1.0M
20260424T12Z_MSC_GDPS_DewPointDepression_IsbL-0950_LatLon0.15_PT126H.grib2 2026-04-24 16:27 1.0M
20260424T12Z_MSC_GDPS_DewPointDepression_IsbL-0970_LatLon0.15_PT126H.grib2 2026-04-24 16:27 1.0M
20260424T12Z_MSC_GDPS_DewPointDepression_IsbL-0985_LatLon0.15_PT126H.grib2 2026-04-24 16:27 1.0M
20260424T12Z_MSC_GDPS_DewPointDepression_IsbL-1000_LatLon0.15_PT126H.grib2 2026-04-24 16:27 1.0M
20260424T12Z_MSC_GDPS_DewPointDepression_IsbL-1015_LatLon0.15_PT126H.grib2 2026-04-24 16:27 922K
20260424T12Z_MSC_GDPS_DewPoint_AGL-2m_LatLon0.15_PT126H.grib2 2026-04-24 16:27 613K
20260424T12Z_MSC_GDPS_DownwardLongwaveRadiationFlux-Accum_Sfc_LatLon0.15_PT126H.grib2 2026-04-24 16:27 810K
20260424T12Z_MSC_GDPS_DownwardShortwaveRadiationFlux-Accum_NTAtm_LatLon0.15_PT126H.grib2 2026-04-24 16:27 187K
20260424T12Z_MSC_GDPS_DownwardShortwaveRadiationFlux-Accum_Sfc_LatLon0.15_PT126H.grib2 2026-04-24 16:27 1.0M
20260424T12Z_MSC_GDPS_FreezingRain-Accum12h_Sfc_LatLon0.15_PT126H.grib2 2026-04-24 16:27 121K
20260424T12Z_MSC_GDPS_FreezingRain-Accum1h_Sfc_LatLon0.15_PT126H.grib2 2026-04-24 16:27 39K
20260424T12Z_MSC_GDPS_FreezingRain-Accum24h_Sfc_LatLon0.15_PT126H.grib2 2026-04-24 16:27 177K
20260424T12Z_MSC_GDPS_FreezingRain-Accum3h_Sfc_LatLon0.15_PT126H.grib2 2026-04-24 16:27 52K
20260424T12Z_MSC_GDPS_FreezingRain-Accum6h_Sfc_LatLon0.15_PT126H.grib2 2026-04-24 16:27 94K
20260424T12Z_MSC_GDPS_FreezingRain-Accum_Sfc_LatLon0.15_PT126H.grib2 2026-04-24 16:27 462K
20260424T12Z_MSC_GDPS_GeopotentialHeight_IsbL-0001_LatLon0.15_PT126H.grib2 2026-04-24 16:27 379K
20260424T12Z_MSC_GDPS_GeopotentialHeight_IsbL-0005_LatLon0.15_PT126H.grib2 2026-04-24 16:27 493K
20260424T12Z_MSC_GDPS_GeopotentialHeight_IsbL-0010_LatLon0.15_PT126H.grib2 2026-04-24 16:27 477K
20260424T12Z_MSC_GDPS_GeopotentialHeight_IsbL-0020_LatLon0.15_PT126H.grib2 2026-04-24 16:27 416K
20260424T12Z_MSC_GDPS_GeopotentialHeight_IsbL-0030_LatLon0.15_PT126H.grib2 2026-04-24 16:27 574K
20260424T12Z_MSC_GDPS_GeopotentialHeight_IsbL-0050_LatLon0.15_PT126H.grib2 2026-04-24 16:27 571K
20260424T12Z_MSC_GDPS_GeopotentialHeight_IsbL-0100_LatLon0.15_PT126H.grib2 2026-04-24 16:27 609K
20260424T12Z_MSC_GDPS_GeopotentialHeight_IsbL-0150_LatLon0.15_PT126H.grib2 2026-04-24 16:27 629K
20260424T12Z_MSC_GDPS_GeopotentialHeight_IsbL-0175_LatLon0.15_PT126H.grib2 2026-04-24 16:27 635K
20260424T12Z_MSC_GDPS_GeopotentialHeight_IsbL-0200_LatLon0.15_PT126H.grib2 2026-04-24 16:27 642K
20260424T12Z_MSC_GDPS_GeopotentialHeight_IsbL-0225_LatLon0.15_PT126H.grib2 2026-04-24 16:27 647K
20260424T12Z_MSC_GDPS_GeopotentialHeight_IsbL-0250_LatLon0.15_PT126H.grib2 2026-04-24 16:27 651K
20260424T12Z_MSC_GDPS_GeopotentialHeight_IsbL-0275_LatLon0.15_PT126H.grib2 2026-04-24 16:27 649K
20260424T12Z_MSC_GDPS_GeopotentialHeight_IsbL-0300_LatLon0.15_PT126H.grib2 2026-04-24 16:27 640K
20260424T12Z_MSC_GDPS_GeopotentialHeight_IsbL-0350_LatLon0.15_PT126H.grib2 2026-04-24 16:27 634K
20260424T12Z_MSC_GDPS_GeopotentialHeight_IsbL-0400_LatLon0.15_PT126H.grib2 2026-04-24 16:27 625K
20260424T12Z_MSC_GDPS_GeopotentialHeight_IsbL-0450_LatLon0.15_PT126H.grib2 2026-04-24 16:27 614K
20260424T12Z_MSC_GDPS_GeopotentialHeight_IsbL-0500_LatLon0.15_PT126H.grib2 2026-04-24 16:27 602K
20260424T12Z_MSC_GDPS_GeopotentialHeight_IsbL-0550_LatLon0.15_PT126H.grib2 2026-04-24 16:27 528K
20260424T12Z_MSC_GDPS_GeopotentialHeight_IsbL-0600_LatLon0.15_PT126H.grib2 2026-04-24 16:27 524K
20260424T12Z_MSC_GDPS_GeopotentialHeight_IsbL-0650_LatLon0.15_PT126H.grib2 2026-04-24 16:27 690K
20260424T12Z_MSC_GDPS_GeopotentialHeight_IsbL-0700_LatLon0.15_PT126H.grib2 2026-04-24 16:27 691K
20260424T12Z_MSC_GDPS_GeopotentialHeight_IsbL-0750_LatLon0.15_PT126H.grib2 2026-04-24 16:27 695K
20260424T12Z_MSC_GDPS_GeopotentialHeight_IsbL-0800_LatLon0.15_PT126H.grib2 2026-04-24 16:27 705K
20260424T12Z_MSC_GDPS_GeopotentialHeight_IsbL-0850_LatLon0.15_PT126H.grib2 2026-04-24 16:27 712K
20260424T12Z_MSC_GDPS_GeopotentialHeight_IsbL-0875_LatLon0.15_PT126H.grib2 2026-04-24 16:27 717K
20260424T12Z_MSC_GDPS_GeopotentialHeight_IsbL-0900_LatLon0.15_PT126H.grib2 2026-04-24 16:27 724K
20260424T12Z_MSC_GDPS_GeopotentialHeight_IsbL-0925_LatLon0.15_PT126H.grib2 2026-04-24 16:27 734K
20260424T12Z_MSC_GDPS_GeopotentialHeight_IsbL-0950_LatLon0.15_PT126H.grib2 2026-04-24 16:27 739K
20260424T12Z_MSC_GDPS_GeopotentialHeight_IsbL-0970_LatLon0.15_PT126H.grib2 2026-04-24 16:27 752K
20260424T12Z_MSC_GDPS_GeopotentialHeight_IsbL-0985_LatLon0.15_PT126H.grib2 2026-04-24 16:27 769K
20260424T12Z_MSC_GDPS_GeopotentialHeight_IsbL-1000_LatLon0.15_PT126H.grib2 2026-04-24 16:27 792K
20260424T12Z_MSC_GDPS_GeopotentialHeight_IsbL-1015_LatLon0.15_PT126H.grib2 2026-04-24 16:27 816K
20260424T12Z_MSC_GDPS_Humidex_Sfc_LatLon0.15_PT126H.grib2 2026-04-24 16:27 5.3M
20260424T12Z_MSC_GDPS_IcePellets-Accum12h_Sfc_LatLon0.15_PT126H.grib2 2026-04-24 16:27 35K
20260424T12Z_MSC_GDPS_IcePellets-Accum1h_Sfc_LatLon0.15_PT126H.grib2 2026-04-24 16:27 15K
20260424T12Z_MSC_GDPS_IcePellets-Accum24h_Sfc_LatLon0.15_PT126H.grib2 2026-04-24 16:27 53K
20260424T12Z_MSC_GDPS_IcePellets-Accum3h_Sfc_LatLon0.15_PT126H.grib2 2026-04-24 16:27 18K
20260424T12Z_MSC_GDPS_IcePellets-Accum6h_Sfc_LatLon0.15_PT126H.grib2 2026-04-24 16:27 24K
20260424T12Z_MSC_GDPS_IcePellets-Accum_Sfc_LatLon0.15_PT126H.grib2 2026-04-24 16:27 161K
20260424T12Z_MSC_GDPS_KIndex_Sfc_LatLon0.15_PT126H.grib2 2026-04-24 16:27 6.5M
20260424T12Z_MSC_GDPS_LatentHeatNetFlux_Sfc_LatLon0.15_PT126H.grib2 2026-04-24 16:27 514K
20260424T12Z_MSC_GDPS_LiftedIndex-MU-VT_IsbL-0500_LatLon0.15_PT126H.grib2 2026-04-24 16:27 5.3M
20260424T12Z_MSC_GDPS_NetLongwaveRadiationFlux-Accum_Sfc_LatLon0.15_PT126H.grib2 2026-04-24 16:27 1.0M
20260424T12Z_MSC_GDPS_NetShortwaveRadiationFlux-Accum_Sfc_LatLon0.15_PT126H.grib2 2026-04-24 16:27 1.0M
20260424T12Z_MSC_GDPS_O3MixingRatio_LatLon0.15_PT126H.grib2 2026-04-24 16:51 2.2M
20260424T12Z_MSC_GDPS_O3_EAtm_LatLon0.15_PT126H.grib2 2026-04-24 16:51 2.5M
20260424T12Z_MSC_GDPS_PlanetaryBoundaryLayerHeight_Sfc_LatLon0.15_PT126H.grib2 2026-04-24 16:27 2.5M
20260424T12Z_MSC_GDPS_Precip-Accum12h_Sfc_LatLon0.15_PT126H.grib2 2026-04-24 16:27 4.1M
20260424T12Z_MSC_GDPS_Precip-Accum1h_Sfc_LatLon0.15_PT126H.grib2 2026-04-24 16:27 3.3M
20260424T12Z_MSC_GDPS_Precip-Accum24h_Sfc_LatLon0.15_PT126H.grib2 2026-04-24 16:27 4.6M
20260424T12Z_MSC_GDPS_Precip-Accum3h_Sfc_LatLon0.15_PT126H.grib2 2026-04-24 16:27 3.6M
20260424T12Z_MSC_GDPS_Precip-Accum6h_Sfc_LatLon0.15_PT126H.grib2 2026-04-24 16:27 3.9M
20260424T12Z_MSC_GDPS_Precip-Accum_Sfc_LatLon0.15_PT126H.grib2 2026-04-24 16:27 5.2M
20260424T12Z_MSC_GDPS_PrecipRate_Sfc_LatLon0.15_PT126H.grib2 2026-04-24 16:27 3.2M
20260424T12Z_MSC_GDPS_PrecipType-Instant_Sfc_LatLon0.15_PT126H.grib2 2026-04-24 16:27 1.7M
20260424T12Z_MSC_GDPS_Pressure_MSL_LatLon0.15_PT126H.grib2 2026-04-24 16:27 728K
20260424T12Z_MSC_GDPS_Pressure_PVU-1.5_LatLon0.15_PT126H.grib2 2026-04-24 16:27 5.8M
20260424T12Z_MSC_GDPS_Pressure_PVU-1_LatLon0.15_PT126H.grib2 2026-04-24 16:27 6.0M
20260424T12Z_MSC_GDPS_Pressure_PVU-2_LatLon0.15_PT126H.grib2 2026-04-24 16:27 6.0M
20260424T12Z_MSC_GDPS_Pressure_Sfc_LatLon0.15_PT126H.grib2 2026-04-24 16:27 1.1M
20260424T12Z_MSC_GDPS_RadiativeTemp_Sfc_LatLon0.15_PT126H.grib2 2026-04-24 16:27 496K
20260424T12Z_MSC_GDPS_Rain-Accum12h_Sfc_LatLon0.15_PT126H.grib2 2026-04-24 16:27 2.8M
20260424T12Z_MSC_GDPS_Rain-Accum1h_Sfc_LatLon0.15_PT126H.grib2 2026-04-24 16:27 1.7M
20260424T12Z_MSC_GDPS_Rain-Accum24h_Sfc_LatLon0.15_PT126H.grib2 2026-04-24 16:27 3.3M
20260424T12Z_MSC_GDPS_Rain-Accum3h_Sfc_LatLon0.15_PT126H.grib2 2026-04-24 16:27 1.7M
20260424T12Z_MSC_GDPS_Rain-Accum6h_Sfc_LatLon0.15_PT126H.grib2 2026-04-24 16:27 2.5M
20260424T12Z_MSC_GDPS_Rain-Accum_Sfc_LatLon0.15_PT126H.grib2 2026-04-24 16:27 4.0M
20260424T12Z_MSC_GDPS_RelativeHumidity_AGL-2m_LatLon0.15_PT126H.grib2 2026-04-24 16:27 1.1M
20260424T12Z_MSC_GDPS_RelativeHumidity_IsbL-0010_LatLon0.15_PT126H.grib2 2026-04-24 16:27 164K
20260424T12Z_MSC_GDPS_RelativeHumidity_IsbL-0020_LatLon0.15_PT126H.grib2 2026-04-24 16:27 265K
20260424T12Z_MSC_GDPS_RelativeHumidity_IsbL-0030_LatLon0.15_PT126H.grib2 2026-04-24 16:27 408K
20260424T12Z_MSC_GDPS_RelativeHumidity_IsbL-0050_LatLon0.15_PT126H.grib2 2026-04-24 16:27 324K
20260424T12Z_MSC_GDPS_RelativeHumidity_IsbL-0100_LatLon0.15_PT126H.grib2 2026-04-24 16:27 498K
20260424T12Z_MSC_GDPS_RelativeHumidity_IsbL-0150_LatLon0.15_PT126H.grib2 2026-04-24 16:27 654K
20260424T12Z_MSC_GDPS_RelativeHumidity_IsbL-0175_LatLon0.15_PT126H.grib2 2026-04-24 16:27 781K
20260424T12Z_MSC_GDPS_RelativeHumidity_IsbL-0200_LatLon0.15_PT126H.grib2 2026-04-24 16:27 701K
20260424T12Z_MSC_GDPS_RelativeHumidity_IsbL-0225_LatLon0.15_PT126H.grib2 2026-04-24 16:27 787K
20260424T12Z_MSC_GDPS_RelativeHumidity_IsbL-0250_LatLon0.15_PT126H.grib2 2026-04-24 16:27 867K
20260424T12Z_MSC_GDPS_RelativeHumidity_IsbL-0275_LatLon0.15_PT126H.grib2 2026-04-24 16:27 889K
20260424T12Z_MSC_GDPS_RelativeHumidity_IsbL-0300_LatLon0.15_PT126H.grib2 2026-04-24 16:27 927K
20260424T12Z_MSC_GDPS_RelativeHumidity_IsbL-0350_LatLon0.15_PT126H.grib2 2026-04-24 16:27 950K
20260424T12Z_MSC_GDPS_RelativeHumidity_IsbL-0400_LatLon0.15_PT126H.grib2 2026-04-24 16:27 1.0M
20260424T12Z_MSC_GDPS_RelativeHumidity_IsbL-0450_LatLon0.15_PT126H.grib2 2026-04-24 16:27 1.0M
20260424T12Z_MSC_GDPS_RelativeHumidity_IsbL-0500_LatLon0.15_PT126H.grib2 2026-04-24 16:27 1.0M
20260424T12Z_MSC_GDPS_RelativeHumidity_IsbL-0550_LatLon0.15_PT126H.grib2 2026-04-24 16:27 1.0M
20260424T12Z_MSC_GDPS_RelativeHumidity_IsbL-0600_LatLon0.15_PT126H.grib2 2026-04-24 16:27 1.0M
20260424T12Z_MSC_GDPS_RelativeHumidity_IsbL-0650_LatLon0.15_PT126H.grib2 2026-04-24 16:27 1.1M
20260424T12Z_MSC_GDPS_RelativeHumidity_IsbL-0700_LatLon0.15_PT126H.grib2 2026-04-24 16:27 1.1M
20260424T12Z_MSC_GDPS_RelativeHumidity_IsbL-0750_LatLon0.15_PT126H.grib2 2026-04-24 16:27 1.1M
20260424T12Z_MSC_GDPS_RelativeHumidity_IsbL-0800_LatLon0.15_PT126H.grib2 2026-04-24 16:27 1.3M
20260424T12Z_MSC_GDPS_RelativeHumidity_IsbL-0850_LatLon0.15_PT126H.grib2 2026-04-24 16:27 1.3M
20260424T12Z_MSC_GDPS_RelativeHumidity_IsbL-0875_LatLon0.15_PT126H.grib2 2026-04-24 16:27 1.3M
20260424T12Z_MSC_GDPS_RelativeHumidity_IsbL-0900_LatLon0.15_PT126H.grib2 2026-04-24 16:27 1.2M
20260424T12Z_MSC_GDPS_RelativeHumidity_IsbL-0925_LatLon0.15_PT126H.grib2 2026-04-24 16:27 1.2M
20260424T12Z_MSC_GDPS_RelativeHumidity_IsbL-0950_LatLon0.15_PT126H.grib2 2026-04-24 16:27 1.2M
20260424T12Z_MSC_GDPS_RelativeHumidity_IsbL-0970_LatLon0.15_PT126H.grib2 2026-04-24 16:27 1.2M
20260424T12Z_MSC_GDPS_RelativeHumidity_IsbL-0985_LatLon0.15_PT126H.grib2 2026-04-24 16:27 1.2M
20260424T12Z_MSC_GDPS_RelativeHumidity_IsbL-1000_LatLon0.15_PT126H.grib2 2026-04-24 16:27 1.1M
20260424T12Z_MSC_GDPS_RelativeHumidity_IsbL-1015_LatLon0.15_PT126H.grib2 2026-04-24 16:27 1.1M
20260424T12Z_MSC_GDPS_RelativeVorticity_IsbL-0200_LatLon0.15_PT126H.grib2 2026-04-24 16:27 1.5M
20260424T12Z_MSC_GDPS_RelativeVorticity_IsbL-0250_LatLon0.15_PT126H.grib2 2026-04-24 16:27 1.3M
20260424T12Z_MSC_GDPS_RelativeVorticity_IsbL-0500_LatLon0.15_PT126H.grib2 2026-04-24 16:27 1.4M
20260424T12Z_MSC_GDPS_RelativeVorticity_IsbL-0700_LatLon0.15_PT126H.grib2 2026-04-24 16:27 1.6M
20260424T12Z_MSC_GDPS_RelativeVorticity_IsbL-0850_LatLon0.15_PT126H.grib2 2026-04-24 16:27 1.6M
20260424T12Z_MSC_GDPS_Runoff-Accum_Sfc_LatLon0.15_PT126H.grib2 2026-04-24 16:27 142K
20260424T12Z_MSC_GDPS_SensibleHeatNetFlux_Sfc_LatLon0.15_PT126H.grib2 2026-04-24 16:27 463K
20260424T12Z_MSC_GDPS_ShowalterIndex_IsbL-0500_LatLon0.15_PT126H.grib2 2026-04-24 16:27 6.2M
20260424T12Z_MSC_GDPS_Snow-Accum12h_Sfc_LatLon0.15_PT126H.grib2 2026-04-24 16:27 1.5M
20260424T12Z_MSC_GDPS_Snow-Accum1h_Sfc_LatLon0.15_PT126H.grib2 2026-04-24 16:27 1.2M
20260424T12Z_MSC_GDPS_Snow-Accum24h_Sfc_LatLon0.15_PT126H.grib2 2026-04-24 16:27 1.7M
20260424T12Z_MSC_GDPS_Snow-Accum3h_Sfc_LatLon0.15_PT126H.grib2 2026-04-24 16:27 1.1M
20260424T12Z_MSC_GDPS_Snow-Accum6h_Sfc_LatLon0.15_PT126H.grib2 2026-04-24 16:27 1.4M
20260424T12Z_MSC_GDPS_Snow-Accum_Sfc_LatLon0.15_PT126H.grib2 2026-04-24 16:27 2.2M
20260424T12Z_MSC_GDPS_SnowDensity_Sfc_LatLon0.15_PT126H.grib2 2026-04-24 16:27 273K
20260424T12Z_MSC_GDPS_SnowDepth_Sfc_LatLon0.15_PT126H.grib2 2026-04-24 16:27 1.8M
20260424T12Z_MSC_GDPS_SoilTemp_DBS-0to10cm_LatLon0.15_PT126H.grib2 2026-04-24 16:27 511K
20260424T12Z_MSC_GDPS_SoilTemp_Sfc_LatLon0.15_PT126H.grib2 2026-04-24 16:27 582K
20260424T12Z_MSC_GDPS_SoilVolumetricIceContent_Sfc_LatLon0.15_PT126H.grib2 2026-04-24 16:27 210K
20260424T12Z_MSC_GDPS_SoilVolumetricWaterContent_DBS-0to10cm_LatLon0.15_PT126H.grib2 2026-04-24 16:27 581K
20260424T12Z_MSC_GDPS_SoilVolumetricWaterContent_DBS-0to1cm_LatLon0.15_PT126H.grib2 2026-04-24 16:27 649K
20260424T12Z_MSC_GDPS_SpecificHumidity_AGL-120m_LatLon0.15_PT126H.grib2 2026-04-24 16:27 1.1M
20260424T12Z_MSC_GDPS_SpecificHumidity_AGL-2m_LatLon0.15_PT126H.grib2 2026-04-24 16:27 1.2M
20260424T12Z_MSC_GDPS_SpecificHumidity_AGL-40m_LatLon0.15_PT126H.grib2 2026-04-24 16:27 1.1M
20260424T12Z_MSC_GDPS_SpecificHumidity_AGL-80m_LatLon0.15_PT126H.grib2 2026-04-24 16:27 1.1M
20260424T12Z_MSC_GDPS_SpecificHumidity_IsbL-0001_LatLon0.15_PT126H.grib2 2026-04-24 16:27 1.2M
20260424T12Z_MSC_GDPS_SpecificHumidity_IsbL-0005_LatLon0.15_PT126H.grib2 2026-04-24 16:27 1.4M
20260424T12Z_MSC_GDPS_SpecificHumidity_IsbL-0010_LatLon0.15_PT126H.grib2 2026-04-24 16:27 1.2M
20260424T12Z_MSC_GDPS_SpecificHumidity_IsbL-0020_LatLon0.15_PT126H.grib2 2026-04-24 16:27 1.3M
20260424T12Z_MSC_GDPS_SpecificHumidity_IsbL-0030_LatLon0.15_PT126H.grib2 2026-04-24 16:27 1.6M
20260424T12Z_MSC_GDPS_SpecificHumidity_IsbL-0050_LatLon0.15_PT126H.grib2 2026-04-24 16:27 1.3M
20260424T12Z_MSC_GDPS_SpecificHumidity_IsbL-0100_LatLon0.15_PT126H.grib2 2026-04-24 16:27 1.3M
20260424T12Z_MSC_GDPS_SpecificHumidity_IsbL-0150_LatLon0.15_PT126H.grib2 2026-04-24 16:27 1.3M
20260424T12Z_MSC_GDPS_SpecificHumidity_IsbL-0175_LatLon0.15_PT126H.grib2 2026-04-24 16:27 1.3M
20260424T12Z_MSC_GDPS_SpecificHumidity_IsbL-0200_LatLon0.15_PT126H.grib2 2026-04-24 16:27 1.3M
20260424T12Z_MSC_GDPS_SpecificHumidity_IsbL-0225_LatLon0.15_PT126H.grib2 2026-04-24 16:27 1.3M
20260424T12Z_MSC_GDPS_SpecificHumidity_IsbL-0250_LatLon0.15_PT126H.grib2 2026-04-24 16:27 1.5M
20260424T12Z_MSC_GDPS_SpecificHumidity_IsbL-0275_LatLon0.15_PT126H.grib2 2026-04-24 16:27 1.3M
20260424T12Z_MSC_GDPS_SpecificHumidity_IsbL-0300_LatLon0.15_PT126H.grib2 2026-04-24 16:27 1.5M
20260424T12Z_MSC_GDPS_SpecificHumidity_IsbL-0350_LatLon0.15_PT126H.grib2 2026-04-24 16:27 1.5M
20260424T12Z_MSC_GDPS_SpecificHumidity_IsbL-0400_LatLon0.15_PT126H.grib2 2026-04-24 16:27 1.4M
20260424T12Z_MSC_GDPS_SpecificHumidity_IsbL-0450_LatLon0.15_PT126H.grib2 2026-04-24 16:27 1.6M
20260424T12Z_MSC_GDPS_SpecificHumidity_IsbL-0500_LatLon0.15_PT126H.grib2 2026-04-24 16:27 1.4M
20260424T12Z_MSC_GDPS_SpecificHumidity_IsbL-0550_LatLon0.15_PT126H.grib2 2026-04-24 16:27 1.6M
20260424T12Z_MSC_GDPS_SpecificHumidity_IsbL-0600_LatLon0.15_PT126H.grib2 2026-04-24 16:27 1.7M
20260424T12Z_MSC_GDPS_SpecificHumidity_IsbL-0650_LatLon0.15_PT126H.grib2 2026-04-24 16:27 1.5M
20260424T12Z_MSC_GDPS_SpecificHumidity_IsbL-0700_LatLon0.15_PT126H.grib2 2026-04-24 16:27 1.6M
20260424T12Z_MSC_GDPS_SpecificHumidity_IsbL-0750_LatLon0.15_PT126H.grib2 2026-04-24 16:27 1.7M
20260424T12Z_MSC_GDPS_SpecificHumidity_IsbL-0800_LatLon0.15_PT126H.grib2 2026-04-24 16:27 1.9M
20260424T12Z_MSC_GDPS_SpecificHumidity_IsbL-0850_LatLon0.15_PT126H.grib2 2026-04-24 16:27 1.9M
20260424T12Z_MSC_GDPS_SpecificHumidity_IsbL-0875_LatLon0.15_PT126H.grib2 2026-04-24 16:27 1.9M
20260424T12Z_MSC_GDPS_SpecificHumidity_IsbL-0900_LatLon0.15_PT126H.grib2 2026-04-24 16:27 1.9M
20260424T12Z_MSC_GDPS_SpecificHumidity_IsbL-0925_LatLon0.15_PT126H.grib2 2026-04-24 16:27 1.9M
20260424T12Z_MSC_GDPS_SpecificHumidity_IsbL-0950_LatLon0.15_PT126H.grib2 2026-04-24 16:27 1.6M
20260424T12Z_MSC_GDPS_SpecificHumidity_IsbL-0970_LatLon0.15_PT126H.grib2 2026-04-24 16:27 1.5M
20260424T12Z_MSC_GDPS_SpecificHumidity_IsbL-0985_LatLon0.15_PT126H.grib2 2026-04-24 16:27 1.5M
20260424T12Z_MSC_GDPS_SpecificHumidity_IsbL-1000_LatLon0.15_PT126H.grib2 2026-04-24 16:27 1.5M
20260424T12Z_MSC_GDPS_SpecificHumidity_IsbL-1015_LatLon0.15_PT126H.grib2 2026-04-24 16:27 1.4M
20260424T12Z_MSC_GDPS_SpecificHumidity_Sfc_LatLon0.15_PT126H.grib2 2026-04-24 16:27 665K
20260424T12Z_MSC_GDPS_Thickness_IsbL-0850to0700_LatLon0.15_PT126H.grib2 2026-04-24 16:27 470K
20260424T12Z_MSC_GDPS_Thickness_IsbL-1000to0500_LatLon0.15_PT126H.grib2 2026-04-24 16:27 377K
20260424T12Z_MSC_GDPS_Thickness_IsbL-1000to0850_LatLon0.15_PT126H.grib2 2026-04-24 16:27 494K
20260424T12Z_MSC_GDPS_TotalCloudCover_Sfc_LatLon0.15_PT126H.grib2 2026-04-24 16:27 841K
20260424T12Z_MSC_GDPS_TotalTotalsIndex_Sfc_LatLon0.15_PT126H.grib2 2026-04-24 16:27 6.2M
20260424T12Z_MSC_GDPS_UVIndex-ClearSky-Max24h_Sfc_LatLon0.15_PT126H.grib2 2026-04-24 16:51 2.2M
20260424T12Z_MSC_GDPS_UVIndex-ClearSky_Sfc_LatLon0.15_PT126H.grib2 2026-04-24 16:51 1.0M
20260424T12Z_MSC_GDPS_UVIndex-Max24h_Sfc_LatLon0.15_PT126H.grib2 2026-04-24 16:51 3.2M
20260424T12Z_MSC_GDPS_UVIndex_Sfc_LatLon0.15_PT126H.grib2 2026-04-24 16:51 1.5M
20260424T12Z_MSC_GDPS_UpwardLongwaveRadiationFlux_NTAtm_LatLon0.15_PT126H.grib2 2026-04-24 16:27 846K
20260424T12Z_MSC_GDPS_VerticalVelocity_IsbL-0200_LatLon0.15_PT126H.grib2 2026-04-24 16:27 1.2M
20260424T12Z_MSC_GDPS_VerticalVelocity_IsbL-0250_LatLon0.15_PT126H.grib2 2026-04-24 16:27 1.0M
20260424T12Z_MSC_GDPS_VerticalVelocity_IsbL-0500_LatLon0.15_PT126H.grib2 2026-04-24 16:27 1.0M
20260424T12Z_MSC_GDPS_VerticalVelocity_IsbL-0600_LatLon0.15_PT126H.grib2 2026-04-24 16:27 1.1M
20260424T12Z_MSC_GDPS_VerticalVelocity_IsbL-0700_LatLon0.15_PT126H.grib2 2026-04-24 16:27 1.1M
20260424T12Z_MSC_GDPS_VerticalVelocity_IsbL-0850_LatLon0.15_PT126H.grib2 2026-04-24 16:27 1.6M
20260424T12Z_MSC_GDPS_WindChill_Sfc_LatLon0.15_PT126H.grib2 2026-04-24 16:27 5.4M
20260424T12Z_MSC_GDPS_WindDir_AGL-10m_LatLon0.15_PT126H.grib2 2026-04-24 16:27 1.4M
20260424T12Z_MSC_GDPS_WindDir_AGL-120m_LatLon0.15_PT126H.grib2 2026-04-24 16:27 1.4M
20260424T12Z_MSC_GDPS_WindDir_AGL-40m_LatLon0.15_PT126H.grib2 2026-04-24 16:27 1.4M
20260424T12Z_MSC_GDPS_WindDir_AGL-80m_LatLon0.15_PT126H.grib2 2026-04-24 16:27 1.4M
20260424T12Z_MSC_GDPS_WindDir_IsbL-0001_LatLon0.15_PT126H.grib2 2026-04-24 16:27 678K
20260424T12Z_MSC_GDPS_WindDir_IsbL-0005_LatLon0.15_PT126H.grib2 2026-04-24 16:27 784K
20260424T12Z_MSC_GDPS_WindDir_IsbL-0010_LatLon0.15_PT126H.grib2 2026-04-24 16:27 821K
20260424T12Z_MSC_GDPS_WindDir_IsbL-0020_LatLon0.15_PT126H.grib2 2026-04-24 16:27 929K
20260424T12Z_MSC_GDPS_WindDir_IsbL-0030_LatLon0.15_PT126H.grib2 2026-04-24 16:27 902K
20260424T12Z_MSC_GDPS_WindDir_IsbL-0050_LatLon0.15_PT126H.grib2 2026-04-24 16:27 949K
20260424T12Z_MSC_GDPS_WindDir_IsbL-0100_LatLon0.15_PT126H.grib2 2026-04-24 16:27 1.0M
20260424T12Z_MSC_GDPS_WindDir_IsbL-0150_LatLon0.15_PT126H.grib2 2026-04-24 16:27 1.0M
20260424T12Z_MSC_GDPS_WindDir_IsbL-0175_LatLon0.15_PT126H.grib2 2026-04-24 16:27 1.0M
20260424T12Z_MSC_GDPS_WindDir_IsbL-0200_LatLon0.15_PT126H.grib2 2026-04-24 16:27 1.1M
20260424T12Z_MSC_GDPS_WindDir_IsbL-0225_LatLon0.15_PT126H.grib2 2026-04-24 16:27 1.1M
20260424T12Z_MSC_GDPS_WindDir_IsbL-0250_LatLon0.15_PT126H.grib2 2026-04-24 16:27 1.1M
20260424T12Z_MSC_GDPS_WindDir_IsbL-0275_LatLon0.15_PT126H.grib2 2026-04-24 16:27 1.2M
20260424T12Z_MSC_GDPS_WindDir_IsbL-0300_LatLon0.15_PT126H.grib2 2026-04-24 16:27 1.2M
20260424T12Z_MSC_GDPS_WindDir_IsbL-0350_LatLon0.15_PT126H.grib2 2026-04-24 16:27 1.2M
20260424T12Z_MSC_GDPS_WindDir_IsbL-0400_LatLon0.15_PT126H.grib2 2026-04-24 16:27 1.2M
20260424T12Z_MSC_GDPS_WindDir_IsbL-0450_LatLon0.15_PT126H.grib2 2026-04-24 16:27 1.3M
20260424T12Z_MSC_GDPS_WindDir_IsbL-0500_LatLon0.15_PT126H.grib2 2026-04-24 16:27 1.3M
20260424T12Z_MSC_GDPS_WindDir_IsbL-0550_LatLon0.15_PT126H.grib2 2026-04-24 16:27 1.4M
20260424T12Z_MSC_GDPS_WindDir_IsbL-0600_LatLon0.15_PT126H.grib2 2026-04-24 16:27 1.4M
20260424T12Z_MSC_GDPS_WindDir_IsbL-0650_LatLon0.15_PT126H.grib2 2026-04-24 16:27 1.5M
20260424T12Z_MSC_GDPS_WindDir_IsbL-0700_LatLon0.15_PT126H.grib2 2026-04-24 16:27 1.6M
20260424T12Z_MSC_GDPS_WindDir_IsbL-0750_LatLon0.15_PT126H.grib2 2026-04-24 16:27 1.7M
20260424T12Z_MSC_GDPS_WindDir_IsbL-0800_LatLon0.15_PT126H.grib2 2026-04-24 16:27 1.8M
20260424T12Z_MSC_GDPS_WindDir_IsbL-0850_LatLon0.15_PT126H.grib2 2026-04-24 16:27 1.9M
20260424T12Z_MSC_GDPS_WindDir_IsbL-0875_LatLon0.15_PT126H.grib2 2026-04-24 16:27 2.0M
20260424T12Z_MSC_GDPS_WindDir_IsbL-0900_LatLon0.15_PT126H.grib2 2026-04-24 16:27 2.0M
20260424T12Z_MSC_GDPS_WindDir_IsbL-0925_LatLon0.15_PT126H.grib2 2026-04-24 16:27 2.0M
20260424T12Z_MSC_GDPS_WindDir_IsbL-0950_LatLon0.15_PT126H.grib2 2026-04-24 16:27 2.0M
20260424T12Z_MSC_GDPS_WindDir_IsbL-0970_LatLon0.15_PT126H.grib2 2026-04-24 16:27 2.0M
20260424T12Z_MSC_GDPS_WindDir_IsbL-0985_LatLon0.15_PT126H.grib2 2026-04-24 16:27 2.1M
20260424T12Z_MSC_GDPS_WindDir_IsbL-1000_LatLon0.15_PT126H.grib2 2026-04-24 16:27 2.1M
20260424T12Z_MSC_GDPS_WindDir_IsbL-1015_LatLon0.15_PT126H.grib2 2026-04-24 16:27 2.1M
20260424T12Z_MSC_GDPS_WindGust-Max_AGL-10m_LatLon0.15_PT126H.grib2 2026-04-24 16:27 2.2M
20260424T12Z_MSC_GDPS_WindGust-Min_AGL-10m_LatLon0.15_PT126H.grib2 2026-04-24 16:27 2.2M
20260424T12Z_MSC_GDPS_WindGust_AGL-10m_LatLon0.15_PT126H.grib2 2026-04-24 16:27 2.2M
20260424T12Z_MSC_GDPS_WindSpeed_AGL-10m_LatLon0.15_PT126H.grib2 2026-04-24 16:27 1.1M
20260424T12Z_MSC_GDPS_WindSpeed_AGL-120m_LatLon0.15_PT126H.grib2 2026-04-24 16:27 1.2M
20260424T12Z_MSC_GDPS_WindSpeed_AGL-40m_LatLon0.15_PT126H.grib2 2026-04-24 16:27 1.2M
20260424T12Z_MSC_GDPS_WindSpeed_AGL-80m_LatLon0.15_PT126H.grib2 2026-04-24 16:27 1.2M
20260424T12Z_MSC_GDPS_WindSpeed_IsbL-0001_LatLon0.15_PT126H.grib2 2026-04-24 16:27 638K
20260424T12Z_MSC_GDPS_WindSpeed_IsbL-0005_LatLon0.15_PT126H.grib2 2026-04-24 16:27 686K
20260424T12Z_MSC_GDPS_WindSpeed_IsbL-0010_LatLon0.15_PT126H.grib2 2026-04-24 16:27 621K
20260424T12Z_MSC_GDPS_WindSpeed_IsbL-0020_LatLon0.15_PT126H.grib2 2026-04-24 16:27 659K
20260424T12Z_MSC_GDPS_WindSpeed_IsbL-0030_LatLon0.15_PT126H.grib2 2026-04-24 16:27 851K
20260424T12Z_MSC_GDPS_WindSpeed_IsbL-0050_LatLon0.15_PT126H.grib2 2026-04-24 16:27 897K
20260424T12Z_MSC_GDPS_WindSpeed_IsbL-0100_LatLon0.15_PT126H.grib2 2026-04-24 16:27 1.1M
20260424T12Z_MSC_GDPS_WindSpeed_IsbL-0150_LatLon0.15_PT126H.grib2 2026-04-24 16:27 1.0M
20260424T12Z_MSC_GDPS_WindSpeed_IsbL-0175_LatLon0.15_PT126H.grib2 2026-04-24 16:27 1.0M
20260424T12Z_MSC_GDPS_WindSpeed_IsbL-0200_LatLon0.15_PT126H.grib2 2026-04-24 16:27 1.1M
20260424T12Z_MSC_GDPS_WindSpeed_IsbL-0225_LatLon0.15_PT126H.grib2 2026-04-24 16:27 1.1M
20260424T12Z_MSC_GDPS_WindSpeed_IsbL-0250_LatLon0.15_PT126H.grib2 2026-04-24 16:27 1.1M
20260424T12Z_MSC_GDPS_WindSpeed_IsbL-0275_LatLon0.15_PT126H.grib2 2026-04-24 16:27 1.1M
20260424T12Z_MSC_GDPS_WindSpeed_IsbL-0300_LatLon0.15_PT126H.grib2 2026-04-24 16:27 1.1M
20260424T12Z_MSC_GDPS_WindSpeed_IsbL-0350_LatLon0.15_PT126H.grib2 2026-04-24 16:27 1.1M
20260424T12Z_MSC_GDPS_WindSpeed_IsbL-0400_LatLon0.15_PT126H.grib2 2026-04-24 16:27 1.1M
20260424T12Z_MSC_GDPS_WindSpeed_IsbL-0450_LatLon0.15_PT126H.grib2 2026-04-24 16:27 1.1M
20260424T12Z_MSC_GDPS_WindSpeed_IsbL-0500_LatLon0.15_PT126H.grib2 2026-04-24 16:27 1.1M
20260424T12Z_MSC_GDPS_WindSpeed_IsbL-0550_LatLon0.15_PT126H.grib2 2026-04-24 16:27 1.1M
20260424T12Z_MSC_GDPS_WindSpeed_IsbL-0600_LatLon0.15_PT126H.grib2 2026-04-24 16:27 1.1M
20260424T12Z_MSC_GDPS_WindSpeed_IsbL-0650_LatLon0.15_PT126H.grib2 2026-04-24 16:27 1.4M
20260424T12Z_MSC_GDPS_WindSpeed_IsbL-0700_LatLon0.15_PT126H.grib2 2026-04-24 16:27 1.5M
20260424T12Z_MSC_GDPS_WindSpeed_IsbL-0750_LatLon0.15_PT126H.grib2 2026-04-24 16:27 1.6M
20260424T12Z_MSC_GDPS_WindSpeed_IsbL-0800_LatLon0.15_PT126H.grib2 2026-04-24 16:27 1.6M
20260424T12Z_MSC_GDPS_WindSpeed_IsbL-0850_LatLon0.15_PT126H.grib2 2026-04-24 16:27 1.7M
20260424T12Z_MSC_GDPS_WindSpeed_IsbL-0875_LatLon0.15_PT126H.grib2 2026-04-24 16:27 1.8M
20260424T12Z_MSC_GDPS_WindSpeed_IsbL-0900_LatLon0.15_PT126H.grib2 2026-04-24 16:27 1.8M
20260424T12Z_MSC_GDPS_WindSpeed_IsbL-0925_LatLon0.15_PT126H.grib2 2026-04-24 16:27 1.8M
20260424T12Z_MSC_GDPS_WindSpeed_IsbL-0950_LatLon0.15_PT126H.grib2 2026-04-24 16:27 1.9M
20260424T12Z_MSC_GDPS_WindSpeed_IsbL-0970_LatLon0.15_PT126H.grib2 2026-04-24 16:27 1.9M
20260424T12Z_MSC_GDPS_WindSpeed_IsbL-0985_LatLon0.15_PT126H.grib2 2026-04-24 16:27 1.9M
20260424T12Z_MSC_GDPS_WindSpeed_IsbL-1000_LatLon0.15_PT126H.grib2 2026-04-24 16:27 1.9M
20260424T12Z_MSC_GDPS_WindSpeed_IsbL-1015_LatLon0.15_PT126H.grib2 2026-04-24 16:27 1.8M
20260424T12Z_MSC_GDPS_WindU_AGL-10m_LatLon0.15_PT126H.grib2 2026-04-24 16:27 1.6M
20260424T12Z_MSC_GDPS_WindU_AGL-120m_LatLon0.15_PT126H.grib2 2026-04-24 16:27 1.0M
20260424T12Z_MSC_GDPS_WindU_AGL-40m_LatLon0.15_PT126H.grib2 2026-04-24 16:27 1.0M
20260424T12Z_MSC_GDPS_WindU_AGL-80m_LatLon0.15_PT126H.grib2 2026-04-24 16:27 1.0M
20260424T12Z_MSC_GDPS_WindU_IsbL-0001_LatLon0.15_PT126H.grib2 2026-04-24 16:27 642K
20260424T12Z_MSC_GDPS_WindU_IsbL-0005_LatLon0.15_PT126H.grib2 2026-04-24 16:27 686K
20260424T12Z_MSC_GDPS_WindU_IsbL-0010_LatLon0.15_PT126H.grib2 2026-04-24 16:27 696K
20260424T12Z_MSC_GDPS_WindU_IsbL-0020_LatLon0.15_PT126H.grib2 2026-04-24 16:27 727K
20260424T12Z_MSC_GDPS_WindU_IsbL-0030_LatLon0.15_PT126H.grib2 2026-04-24 16:27 730K
20260424T12Z_MSC_GDPS_WindU_IsbL-0050_LatLon0.15_PT126H.grib2 2026-04-24 16:27 692K
20260424T12Z_MSC_GDPS_WindU_IsbL-0100_LatLon0.15_PT126H.grib2 2026-04-24 16:27 920K
20260424T12Z_MSC_GDPS_WindU_IsbL-0150_LatLon0.15_PT126H.grib2 2026-04-24 16:27 1.0M
20260424T12Z_MSC_GDPS_WindU_IsbL-0175_LatLon0.15_PT126H.grib2 2026-04-24 16:27 1.0M
20260424T12Z_MSC_GDPS_WindU_IsbL-0200_LatLon0.15_PT126H.grib2 2026-04-24 16:27 846K
20260424T12Z_MSC_GDPS_WindU_IsbL-0225_LatLon0.15_PT126H.grib2 2026-04-24 16:27 857K
20260424T12Z_MSC_GDPS_WindU_IsbL-0250_LatLon0.15_PT126H.grib2 2026-04-24 16:27 858K
20260424T12Z_MSC_GDPS_WindU_IsbL-0275_LatLon0.15_PT126H.grib2 2026-04-24 16:27 941K
20260424T12Z_MSC_GDPS_WindU_IsbL-0300_LatLon0.15_PT126H.grib2 2026-04-24 16:27 931K
20260424T12Z_MSC_GDPS_WindU_IsbL-0350_LatLon0.15_PT126H.grib2 2026-04-24 16:27 885K
20260424T12Z_MSC_GDPS_WindU_IsbL-0400_LatLon0.15_PT126H.grib2 2026-04-24 16:27 885K
20260424T12Z_MSC_GDPS_WindU_IsbL-0450_LatLon0.15_PT126H.grib2 2026-04-24 16:27 1.1M
20260424T12Z_MSC_GDPS_WindU_IsbL-0500_LatLon0.15_PT126H.grib2 2026-04-24 16:27 1.1M
20260424T12Z_MSC_GDPS_WindU_IsbL-0550_LatLon0.15_PT126H.grib2 2026-04-24 16:27 1.1M
20260424T12Z_MSC_GDPS_WindU_IsbL-0600_LatLon0.15_PT126H.grib2 2026-04-24 16:27 1.1M
20260424T12Z_MSC_GDPS_WindU_IsbL-0650_LatLon0.15_PT126H.grib2 2026-04-24 16:27 1.2M
20260424T12Z_MSC_GDPS_WindU_IsbL-0700_LatLon0.15_PT126H.grib2 2026-04-24 16:27 1.2M
20260424T12Z_MSC_GDPS_WindU_IsbL-0750_LatLon0.15_PT126H.grib2 2026-04-24 16:27 1.2M
20260424T12Z_MSC_GDPS_WindU_IsbL-0800_LatLon0.15_PT126H.grib2 2026-04-24 16:27 1.3M
20260424T12Z_MSC_GDPS_WindU_IsbL-0850_LatLon0.15_PT126H.grib2 2026-04-24 16:27 1.4M
20260424T12Z_MSC_GDPS_WindU_IsbL-0875_LatLon0.15_PT126H.grib2 2026-04-24 16:27 1.5M
20260424T12Z_MSC_GDPS_WindU_IsbL-0900_LatLon0.15_PT126H.grib2 2026-04-24 16:27 1.5M
20260424T12Z_MSC_GDPS_WindU_IsbL-0925_LatLon0.15_PT126H.grib2 2026-04-24 16:27 1.5M
20260424T12Z_MSC_GDPS_WindU_IsbL-0950_LatLon0.15_PT126H.grib2 2026-04-24 16:27 1.4M
20260424T12Z_MSC_GDPS_WindU_IsbL-0970_LatLon0.15_PT126H.grib2 2026-04-24 16:27 1.4M
20260424T12Z_MSC_GDPS_WindU_IsbL-0985_LatLon0.15_PT126H.grib2 2026-04-24 16:27 1.7M
20260424T12Z_MSC_GDPS_WindU_IsbL-1000_LatLon0.15_PT126H.grib2 2026-04-24 16:27 1.7M
20260424T12Z_MSC_GDPS_WindU_IsbL-1015_LatLon0.15_PT126H.grib2 2026-04-24 16:27 1.7M
20260424T12Z_MSC_GDPS_WindV_AGL-10m_LatLon0.15_PT126H.grib2 2026-04-24 16:27 1.6M
20260424T12Z_MSC_GDPS_WindV_AGL-120m_LatLon0.15_PT126H.grib2 2026-04-24 16:27 1.0M
20260424T12Z_MSC_GDPS_WindV_AGL-40m_LatLon0.15_PT126H.grib2 2026-04-24 16:27 1.0M
20260424T12Z_MSC_GDPS_WindV_AGL-80m_LatLon0.15_PT126H.grib2 2026-04-24 16:27 1.0M
20260424T12Z_MSC_GDPS_WindV_IsbL-0001_LatLon0.15_PT126H.grib2 2026-04-24 16:27 768K
20260424T12Z_MSC_GDPS_WindV_IsbL-0005_LatLon0.15_PT126H.grib2 2026-04-24 16:27 850K
20260424T12Z_MSC_GDPS_WindV_IsbL-0010_LatLon0.15_PT126H.grib2 2026-04-24 16:27 784K
20260424T12Z_MSC_GDPS_WindV_IsbL-0020_LatLon0.15_PT126H.grib2 2026-04-24 16:27 841K
20260424T12Z_MSC_GDPS_WindV_IsbL-0030_LatLon0.15_PT126H.grib2 2026-04-24 16:27 842K
20260424T12Z_MSC_GDPS_WindV_IsbL-0050_LatLon0.15_PT126H.grib2 2026-04-24 16:27 896K
20260424T12Z_MSC_GDPS_WindV_IsbL-0100_LatLon0.15_PT126H.grib2 2026-04-24 16:27 1.1M
20260424T12Z_MSC_GDPS_WindV_IsbL-0150_LatLon0.15_PT126H.grib2 2026-04-24 16:27 1.0M
20260424T12Z_MSC_GDPS_WindV_IsbL-0175_LatLon0.15_PT126H.grib2 2026-04-24 16:27 1.0M
20260424T12Z_MSC_GDPS_WindV_IsbL-0200_LatLon0.15_PT126H.grib2 2026-04-24 16:27 843K
20260424T12Z_MSC_GDPS_WindV_IsbL-0225_LatLon0.15_PT126H.grib2 2026-04-24 16:27 912K
20260424T12Z_MSC_GDPS_WindV_IsbL-0250_LatLon0.15_PT126H.grib2 2026-04-24 16:27 913K
20260424T12Z_MSC_GDPS_WindV_IsbL-0275_LatLon0.15_PT126H.grib2 2026-04-24 16:27 936K
20260424T12Z_MSC_GDPS_WindV_IsbL-0300_LatLon0.15_PT126H.grib2 2026-04-24 16:27 863K
20260424T12Z_MSC_GDPS_WindV_IsbL-0350_LatLon0.15_PT126H.grib2 2026-04-24 16:27 874K
20260424T12Z_MSC_GDPS_WindV_IsbL-0400_LatLon0.15_PT126H.grib2 2026-04-24 16:27 872K
20260424T12Z_MSC_GDPS_WindV_IsbL-0450_LatLon0.15_PT126H.grib2 2026-04-24 16:27 875K
20260424T12Z_MSC_GDPS_WindV_IsbL-0500_LatLon0.15_PT126H.grib2 2026-04-24 16:27 1.1M
20260424T12Z_MSC_GDPS_WindV_IsbL-0550_LatLon0.15_PT126H.grib2 2026-04-24 16:27 1.1M
20260424T12Z_MSC_GDPS_WindV_IsbL-0600_LatLon0.15_PT126H.grib2 2026-04-24 16:27 1.1M
20260424T12Z_MSC_GDPS_WindV_IsbL-0650_LatLon0.15_PT126H.grib2 2026-04-24 16:27 1.2M
20260424T12Z_MSC_GDPS_WindV_IsbL-0700_LatLon0.15_PT126H.grib2 2026-04-24 16:27 1.2M
20260424T12Z_MSC_GDPS_WindV_IsbL-0750_LatLon0.15_PT126H.grib2 2026-04-24 16:27 1.2M
20260424T12Z_MSC_GDPS_WindV_IsbL-0800_LatLon0.15_PT126H.grib2 2026-04-24 16:27 1.3M
20260424T12Z_MSC_GDPS_WindV_IsbL-0850_LatLon0.15_PT126H.grib2 2026-04-24 16:27 1.4M
20260424T12Z_MSC_GDPS_WindV_IsbL-0875_LatLon0.15_PT126H.grib2 2026-04-24 16:27 1.5M
20260424T12Z_MSC_GDPS_WindV_IsbL-0900_LatLon0.15_PT126H.grib2 2026-04-24 16:27 1.5M
20260424T12Z_MSC_GDPS_WindV_IsbL-0925_LatLon0.15_PT126H.grib2 2026-04-24 16:27 1.5M
20260424T12Z_MSC_GDPS_WindV_IsbL-0950_LatLon0.15_PT126H.grib2 2026-04-24 16:27 1.4M
20260424T12Z_MSC_GDPS_WindV_IsbL-0970_LatLon0.15_PT126H.grib2 2026-04-24 16:27 1.4M
20260424T12Z_MSC_GDPS_WindV_IsbL-0985_LatLon0.15_PT126H.grib2 2026-04-24 16:27 1.4M
20260424T12Z_MSC_GDPS_WindV_IsbL-1000_LatLon0.15_PT126H.grib2 2026-04-24 16:27 1.4M
20260424T12Z_MSC_GDPS_WindV_IsbL-1015_LatLon0.15_PT126H.grib2 2026-04-24 16:27 1.7M